International Virtual Aviation Organisation

Russian Federation and Kazakhstan MCD

 

Карточка аэропорта UUDD

Внимание!
Информация на этой странице в стадии наполнения.
Если вы не увидели какой-то информации, или заметили неточность - пожалуйста сообщите нам!
Спасибо!
Команда RU-STAFF
Название аэропортаДомодедово
Название аэропорта (англ.)Domodedovo
Превышение594 ft. (181.1 m.)
Координаты55°24.516', 37°54.384'
Высота перехода1200 m
Эшелон переходаBy ATC
Коды ответчика1540-1577
Зона ОрВДМосква РПИ (UUWV)
Данные METARUUDD 282100Z 17003MPS CAVOK 07/M02 Q1015 R14R/CLRD60 NOSIG
Проноз погоды (TAF)UUDD 281957Z 2821/3003 18003MPS 6000 SCT030 TX15/2911Z TN01/3003Z TEMPO 2908/2915 18008MPS TEMPO 2918/2924 -SHRASN FEW010 SCT016CB FM300000 36006MPS 4000 -SN FEW007 OVC016
NOTAMshow/hide NOTAM
AWOS   TABLE

Информация о ВПП

ВПП Длина ВПП (м.) Покрытие Курс ВПП Частота ILS
14L2370Железобетон135 
32R2370Железобетон315 
14R3500Цементобетон135110.1
32L3500Цементобетон315109.3
143800Цементобетон135108.5
323800Цементобетон315111.9

Диспетчерские позиции

Позывной Наименование органа УВД Частота
UUDD_R_APPДомодедово-Круг127.700
UUDD_TWRДомодедово-Вышка118.600
UUDD_TWRДомодедово-Вышка119.700
UUDD_DELДомодедово-Деливери 129.150
UUDD_GNDДомодедово-Перрон119.000
UUDD_GNDДомодедово-Перрон123.750
UUDDFM1



Спутниковое изображение